DW6289 Buckley WA US current weather conditions

sailwx.info

Wind from 221

Air temperature 18.3° C
Dewpoint 10.2° C

Last reported at 2020-Aug-07 00:08 UTC.
Time now 2020-Aug-07 01:03 UTC

Location: N 47°07' W 122°05'.
View on Google Maps.

See reports from other nearby stations

  
Tides and Currents Weather Stations Pressure Air Temp Water Temp Dewpoint Dewpoint Depression Visibility Wind Speed Wind Dir Waves Ship Positions
date/time (UTC)wind fromknots sea level pressurealtimeterstation pressurevisibilityair tempwater tempwave heightnotes
2020-Aug-07 00:08 221 18.3
2020-Aug-07 00:03 252 18.3
2020-Aug-06 23:58 226 0 gusting 8 18.3
2020-Aug-06 23:53 267 3 gusting 10 18.3
2020-Aug-06 23:48 224 3 gusting 10 18.3
2020-Aug-06 23:43 249 5 gusting 9 18.3
2020-Aug-06 23:38 228 1 gusting 7 18.9
2020-Aug-06 23:33 250 0 gusting 3 18.9
2020-Aug-06 23:28 266 0 gusting 6 18.9
2020-Aug-06 23:23 212 2 gusting 8 18.9
2020-Aug-06 23:18 235 1 gusting 8 19.4
2020-Aug-06 23:13 266 2 gusting 11 19.4
2020-Aug-06 23:08 260 3 gusting 10 19.4
2020-Aug-06 23:03 245 1 gusting 8 19.4
2020-Aug-06 22:58 239 0 gusting 10 19.4
2020-Aug-06 22:53 208 3 gusting 11 19.4
2020-Aug-06 22:48 226 3 gusting 11 19.4
2020-Aug-06 22:43 293 19.4
2020-Aug-06 22:38 258 2 gusting 12 20.0
2020-Aug-06 22:33 224 6 gusting 11 20.0
2020-Aug-06 22:28 175 3 gusting 12 20.0
2020-Aug-06 22:23 300 1 gusting 17 19.4
2020-Aug-06 22:18 328 3 gusting 17 19.4
2020-Aug-06 22:13 280 4 gusting 10 19.4
2020-Aug-06 22:08 248 2 gusting 7 19.4
2020-Aug-06 22:03 203 0 gusting 6 18.9
2020-Aug-06 21:58 226 2 gusting 7 18.9
2020-Aug-06 21:53 228 4 gusting 8 18.3
2020-Aug-06 21:48 283 0 gusting 10 18.3
2020-Aug-06 21:43 256 2 gusting 10 18.3
2020-Aug-06 21:38 205 2 gusting 8 18.3
2020-Aug-06 21:33 225 5 gusting 7 18.3
2020-Aug-06 21:28 224 18.3
2020-Aug-06 21:23 229 6 gusting 12 17.8
2020-Aug-06 21:18 235 4 gusting 10 17.8
2020-Aug-06 21:13 269 4 gusting 12 17.8
2020-Aug-06 21:08 210 5 gusting 12 18.3
2020-Aug-06 21:03 236 0 gusting 13 18.3
2020-Aug-06 20:53 208 5 gusting 10 18.9
2020-Aug-06 20:38 245 4 gusting 7 18.9
2020-Aug-06 20:33 239 0 gusting 6 18.9
2020-Aug-06 20:28 249 1 gusting 11 18.9
2020-Aug-06 20:23 249 4 gusting 12 18.9
2020-Aug-06 20:18 124 5 gusting 12 18.9
2020-Aug-06 20:13 240 6 gusting 12 18.9
2020-Aug-06 20:08 245 5 gusting 13 19.4
2020-Aug-06 20:03 224 4 gusting 13 18.9
2020-Aug-06 19:58 229 5 gusting 12 18.3
2020-Aug-06 19:53 217 5 gusting 12 17.8
2020-Aug-06 19:48 233 5 gusting 12 17.8
2020-Aug-06 19:43 176 3 gusting 11 17.8
2020-Aug-06 19:38 228 3 gusting 10 17.8
2020-Aug-06 19:33 236 4 gusting 10 18.3
2020-Aug-06 19:28 273 17.8
2020-Aug-06 19:18 257 4 gusting 9 17.2
2020-Aug-06 19:13 271 1 gusting 13 17.2
2020-Aug-06 19:08 229 8 gusting 13 17.2
2020-Aug-06 19:03 240 2 gusting 11 16.7
2020-Aug-06 18:58 274 5 gusting 10 16.7
2020-Aug-06 18:53 236 6 gusting 10 17.2
2020-Aug-06 18:48 245 1 gusting 11 17.2
2020-Aug-06 18:43 228 6 gusting 9 17.2
2020-Aug-06 18:38 212 17.2
2020-Aug-06 18:33 197 17.2
2020-Aug-06 18:28 218 4 gusting 7 17.2
2020-Aug-06 18:23 236 2 gusting 11 16.7
2020-Aug-06 18:18 253 6 gusting 11 16.7
2020-Aug-06 18:13 224 4 gusting 9 17.2
2020-Aug-06 18:08 194 4 gusting 6 17.2
2020-Aug-06 18:03 276 16.7
2020-Aug-06 17:58 240 3 gusting 7 16.7
2020-Aug-06 17:53 245 16.7
2020-Aug-06 17:48 139 1 gusting 6 16.1
2020-Aug-06 17:43 242 3 gusting 8 16.1
2020-Aug-06 17:38 267 5 gusting 8 15.6
2020-Aug-06 17:33 257 2 gusting 7 15.6
2020-Aug-06 17:28 288 1 gusting 6 15.0
2020-Aug-06 17:23 240 0 gusting 6 15.0
2020-Aug-06 17:18 229 0 gusting 6 15.0
2020-Aug-06 17:13 218 0 gusting 6 15.0
2020-Aug-06 17:08 242 15.0
2020-Aug-06 17:03 293 15.0
2020-Aug-06 16:58 252 0 gusting 4 15.0
2020-Aug-06 16:53 233 15.0
2020-Aug-06 16:48 207 15.0
2020-Aug-06 16:43 190 15.0
2020-Aug-06 16:38 221 15.0
2020-Aug-06 16:33 208 3 gusting 6 15.0
2020-Aug-06 16:28 218 15.0
2020-Aug-06 16:23 242 15.0
2020-Aug-06 16:18 242 15.0
2020-Aug-06 16:13 228 0 gusting 3 15.0
2020-Aug-06 16:08 218 14.4
2020-Aug-06 16:03 198 14.4
2020-Aug-06 15:58 211 14.4
2020-Aug-06 15:53 198 14.4
2020-Aug-06 15:48 228 0 gusting 6 14.4
2020-Aug-06 15:43 232 0 gusting 6 14.4
2020-Aug-06 15:38 266 14.4
2020-Aug-06 15:33 203 14.4
2020-Aug-06 15:28 242 14.4
2020-Aug-06 15:23 226 14.4
2020-Aug-06 15:18 236 0 gusting 3 14.4
2020-Aug-06 15:13 222 14.4
2020-Aug-06 15:08 232 14.4
2020-Aug-06 15:03 218 14.4
2020-Aug-06 14:58 225 14.4
2020-Aug-06 14:53 242 14.4
2020-Aug-06 14:48 232 14.4
2020-Aug-06 14:43 248 14.4
2020-Aug-06 14:38 224 14.4
2020-Aug-06 14:33 226 14.4
2020-Aug-06 14:28 218 14.4
2020-Aug-06 14:23 242 14.4
2020-Aug-06 14:18 242 14.4
2020-Aug-06 14:13 235 14.4
2020-Aug-06 14:08 252 0 gusting 5 14.4
2020-Aug-06 14:03 215 13.9
2020-Aug-06 13:58 264 13.9
2020-Aug-06 13:53 233 13.9
2020-Aug-06 13:43 233 13.9
2020-Aug-06 13:38 233 13.3
2020-Aug-06 13:33 233 13.3
2020-Aug-06 13:28 233 13.3
2020-Aug-06 13:23 233 13.3
2020-Aug-06 13:18 233 12.8
2020-Aug-06 13:13 233 12.8
2020-Aug-06 13:08 233 12.8
2020-Aug-06 13:03 233 12.8
2020-Aug-06 12:58 233 12.8
2020-Aug-06 12:53 233 12.8
2020-Aug-06 12:48 233 12.8
2020-Aug-06 12:43 233 12.8
2020-Aug-06 12:38 233 12.8
2020-Aug-06 12:33 233 12.8
2020-Aug-06 12:28 233 12.8
2020-Aug-06 12:23 233 12.8
2020-Aug-06 12:18 233 12.8
2020-Aug-06 12:13 233 12.2
2020-Aug-06 12:08 233 12.2
2020-Aug-06 12:03 233 12.2
2020-Aug-06 11:58 233 12.8
2020-Aug-06 11:53 233 12.8
2020-Aug-06 11:48 233 12.8
2020-Aug-06 11:43 233 12.8
2020-Aug-06 11:38 233 12.2
2020-Aug-06 11:33 233 12.2
2020-Aug-06 11:28 233 12.2
2020-Aug-06 11:23 233 12.2
2020-Aug-06 11:13 235 12.2
2020-Aug-06 11:08 226 12.8
2020-Aug-06 11:03 226 12.8
2020-Aug-06 10:58 226 12.8
2020-Aug-06 10:53 222 12.8
2020-Aug-06 10:48 153 12.8
2020-Aug-06 10:43 154 12.8
2020-Aug-06 10:38 152 12.8
2020-Aug-06 10:33 152 12.8
2020-Aug-06 10:28 229 12.8
2020-Aug-06 10:23 229 12.8
2020-Aug-06 10:18 229 12.8
2020-Aug-06 10:13 229 13.3
2020-Aug-06 10:08 228 13.3
2020-Aug-06 10:03 228 13.3
2020-Aug-06 09:58 224 13.3
2020-Aug-06 09:53 224 13.3
2020-Aug-06 09:48 221 13.3
2020-Aug-06 09:43 170 13.3
2020-Aug-06 09:38 226 13.3
2020-Aug-06 09:33 226 13.9
2020-Aug-06 09:28 226 13.9
2020-Aug-06 09:23 226 13.9
2020-Aug-06 09:18 122 13.9
2020-Aug-06 09:13 122 13.9
2020-Aug-06 09:08 193 14.4
2020-Aug-06 09:03 200 14.4
2020-Aug-06 08:58 226 14.4
2020-Aug-06 08:53 235 14.4
2020-Aug-06 08:48 257 14.4
2020-Aug-06 08:43 238 0 gusting 4 14.4
2020-Aug-06 08:38 212 14.4
2020-Aug-06 08:33 207 14.4
2020-Aug-06 08:28 219 14.4
2020-Aug-06 08:23 257 14.4
2020-Aug-06 08:18 221 14.4
2020-Aug-06 08:13 238 14.4
2020-Aug-06 08:08 240 14.4
2020-Aug-06 08:03 255 14.4
2020-Aug-06 07:58 229 14.4
2020-Aug-06 07:53 238 15.0
2020-Aug-06 07:48 228 15.0
2020-Aug-06 07:43 211 15.0
2020-Aug-06 07:38 226 15.0
2020-Aug-06 07:33 219 15.0
2020-Aug-06 07:28 236 15.6
2020-Aug-06 07:23 228 0 gusting 6 15.6
2020-Aug-06 07:18 257 0 gusting 5 15.6
2020-Aug-06 07:13 227 0 gusting 6 15.6
2020-Aug-06 07:08 243 2 gusting 8 15.6
2020-Aug-06 07:03 221 3 gusting 8 15.6
2020-Aug-06 06:58 279 0 gusting 5 15.6
2020-Aug-06 06:53 260 15.6
2020-Aug-06 06:48 195 0 gusting 2 15.6
2020-Aug-06 06:43 237 0 gusting 4 15.6
2020-Aug-06 06:38 221 0 gusting 6 15.6
2020-Aug-06 06:33 228 1 gusting 10 15.6
2020-Aug-06 06:28 292 3 gusting 10 16.1
2020-Aug-06 06:23 258 1 gusting 7 16.1
2020-Aug-06 06:18 219 3 gusting 7 16.1
2020-Aug-06 06:13 225 2 gusting 7 16.7
2020-Aug-06 06:08 246 0 gusting 6 16.7
2020-Aug-06 05:58 246 16.7
2020-Aug-06 05:53 236 16.7
2020-Aug-06 05:48 188 0 gusting 5 16.7
2020-Aug-06 05:43 262 0 gusting 4 17.2
2020-Aug-06 05:38 198 17.2
2020-Aug-06 05:33 262 17.2
2020-Aug-06 05:28 212 2 gusting 5 17.2
2020-Aug-06 05:23 186 1 gusting 9 17.2
2020-Aug-06 05:18 226 4 gusting 9 17.8
2020-Aug-06 05:13 215 17.8
2020-Aug-06 05:08 250 18.3
2020-Aug-06 05:03 212 18.3
2020-Aug-06 04:58 221 18.3
2020-Aug-06 04:53 236 18.9
2020-Aug-06 04:48 249 18.9
2020-Aug-06 04:43 225 18.9
2020-Aug-06 04:38 257 18.9
2020-Aug-06 04:33 218 19.4
2020-Aug-06 04:28 232 19.4
2020-Aug-06 04:23 250 19.4
2020-Aug-06 04:18 245 20.0
2020-Aug-06 04:13 242 20.0
2020-Aug-06 04:08 248 20.6
2020-Aug-06 04:03 219 20.6
2020-Aug-06 03:58 260 20.6
2020-Aug-06 03:53 221 1 gusting 4 21.1
2020-Aug-06 03:48 226 21.1
2020-Aug-06 03:43 200 21.1
2020-Aug-06 03:38 229 21.7
2020-Aug-06 03:33 229 21.7
2020-Aug-06 03:28 232 21.7
2020-Aug-06 03:23 235 1 gusting 5 22.2
2020-Aug-06 03:18 218 0 gusting 5 22.2
2020-Aug-06 03:08 232 22.8
2020-Aug-06 03:03 243 22.8
2020-Aug-06 02:58 245 22.8
2020-Aug-06 02:53 257 23.3
2020-Aug-06 02:48 229 23.3
2020-Aug-06 02:43 224 23.3
2020-Aug-06 02:38 229 23.9
2020-Aug-06 02:33 254 23.9
2020-Aug-06 02:28 249 23.9
2020-Aug-06 02:23 267 24.4
2020-Aug-06 02:18 358 24.4
2020-Aug-06 02:13 022 25.0
2020-Aug-06 02:08 343 25.0
2020-Aug-06 02:03 359 25.0
2020-Aug-06 01:58 299 25.0
2020-Aug-06 01:53 294 25.0
2020-Aug-06 01:48 135 25.0
2020-Aug-06 01:43 044 25.6
2020-Aug-06 01:38 093 25.6
2020-Aug-06 01:33 053 25.6
2020-Aug-06 01:28 053 25.0
2020-Aug-06 01:23 053 25.0
2020-Aug-06 01:18 072 25.6
2020-Aug-06 01:13 035 25.6
2020-Aug-06 01:08 035 26.1
2020-Aug-06 01:03 352 26.1
2020-Aug-06 00:58 022 26.1
2020-Aug-06 00:53 308 26.1
2020-Aug-06 00:48 295 26.1
2020-Aug-06 00:43 047 26.1
2020-Aug-06 00:38 047 26.1
2020-Aug-06 00:33 344 26.1
2020-Aug-06 00:28 050 26.1
2020-Aug-06 00:23 310 26.1
2020-Aug-06 00:18 014 26.1
2020-Aug-06 00:13 233 26.1
2020-Aug-06 00:08 288 26.1
2020-Aug-06 00:03 016 26.7
2020-Aug-05 23:58 006 26.7
2020-Aug-05 23:53 215 26.7
2020-Aug-05 23:48 083 26.7
2020-Aug-05 23:43 228 0 gusting 6 26.7
2020-Aug-05 23:38 215 0 gusting 5 26.7
2020-Aug-05 23:33 239 0 gusting 5 27.2
2020-Aug-05 23:28 347 26.7
2020-Aug-05 23:23 248 1 gusting 6 26.7
2020-Aug-05 23:18 357 26.7
2020-Aug-05 23:13 236 27.2
2020-Aug-05 23:08 144 27.2
2020-Aug-05 23:03 232 26.7
2020-Aug-05 22:58 235 4 gusting 8 26.7
2020-Aug-05 22:53 198 26.7
2020-Aug-05 22:48 238 26.7
2020-Aug-05 22:43 214 26.7
2020-Aug-05 22:38 247 3 gusting 8 27.2
2020-Aug-05 22:33 222 26.7
2020-Aug-05 22:28 248 2 gusting 8 26.7
2020-Aug-05 22:23 146 27.2
2020-Aug-05 22:18 322 27.8
2020-Aug-05 22:13 326 27.2
2020-Aug-05 22:08 069 26.7
2020-Aug-05 22:03 316 26.7
2020-Aug-05 21:58 233 26.7
2020-Aug-05 21:53 293 0 gusting 3 26.7
2020-Aug-05 21:48 115 27.2
2020-Aug-05 21:43 108 26.7
2020-Aug-05 21:38 205 26.1
2020-Aug-05 21:33 274 26.1
2020-Aug-05 21:28 052 0 gusting 2 26.1
2020-Aug-05 21:23 271 26.1
2020-Aug-05 21:18 094 26.1
2020-Aug-05 21:13 238 26.7
2020-Aug-05 21:08 354 26.1
2020-Aug-05 21:03 298 25.6
2020-Aug-05 20:58 250 25.0
2020-Aug-05 20:53 145 24.4
2020-Aug-05 20:48 233 24.4
2020-Aug-05 20:43 188 0 gusting 4 24.4
2020-Aug-05 20:38 248 24.4
2020-Aug-05 20:33 250 24.4
2020-Aug-05 20:28 237 24.4
2020-Aug-05 20:23 228 0 gusting 4 24.4
2020-Aug-05 20:18 276 1 gusting 3 24.4
2020-Aug-05 20:13 222 0 gusting 3 25.0
2020-Aug-05 20:08 257 25.0
2020-Aug-05 20:03 219 1 gusting 4 24.4
2020-Aug-05 19:58 212 24.4
2020-Aug-05 19:53 235 0 gusting 4 24.4
2020-Aug-05 19:48 229 24.4
2020-Aug-05 19:43 224 23.9
2020-Aug-05 19:38 225 1 gusting 5 23.9
2020-Aug-05 19:33 235 0 gusting 3 23.9
2020-Aug-05 19:28 291 0 gusting 4 23.9
2020-Aug-05 19:23 270 0 gusting 4 23.9
2020-Aug-05 19:18 111 23.9
2020-Aug-05 19:13 228 23.9
2020-Aug-05 19:08 217 23.9
2020-Aug-05 19:03 283 23.3
2020-Aug-05 18:58 198 23.3
2020-Aug-05 18:53 082 23.3
2020-Aug-05 18:48 232 22.8
2020-Aug-05 18:43 211 1 gusting 5 22.8
2020-Aug-05 18:38 246 22.8
2020-Aug-05 18:33 270 22.2
2020-Aug-05 18:28 260 22.2
2020-Aug-05 18:23 116 22.2
2020-Aug-05 18:18 229 0 gusting 4 22.8
2020-Aug-05 18:13 218 22.8
2020-Aug-05 18:08 139 22.2
2020-Aug-05 18:03 129 0 gusting 2 22.2
2020-Aug-05 17:58 079 22.8
2020-Aug-05 17:53 029 22.8
2020-Aug-05 17:48 094 22.2
2020-Aug-05 17:43 114 21.7
2020-Aug-05 17:38 087 22.2
2020-Aug-05 17:33 053 21.7
2020-Aug-05 17:28 254 21.1
2020-Aug-05 17:23 237 21.1
2020-Aug-05 17:18 181 21.1
2020-Aug-05 17:13 224 20.6
2020-Aug-05 17:08 235 21.1
2020-Aug-05 17:03 251 20.6
2020-Aug-05 16:58 066 20.6
2020-Aug-05 16:53 121 20.6
2020-Aug-05 16:48 127 20.0
2020-Aug-05 16:43 218 20.6
2020-Aug-05 16:38 037 20.6
2020-Aug-05 16:33 291 20.0
2020-Aug-05 16:28 166 19.4
2020-Aug-05 16:23 248 20.0
2020-Aug-05 16:18 022 19.4
2020-Aug-05 16:13 116 18.9
2020-Aug-05 16:08 252 19.4
2020-Aug-05 16:03 242 18.9
2020-Aug-05 15:58 244 18.3
2020-Aug-05 15:53 224 17.8
2020-Aug-05 15:48 248 17.8
2020-Aug-05 15:43 242 17.8
2020-Aug-05 15:38 207 17.2
2020-Aug-05 15:33 193 0 gusting 1 17.2
2020-Aug-05 15:28 256 16.7
2020-Aug-05 15:23 209 16.7
2020-Aug-05 15:18 209 0 gusting 2 16.7
2020-Aug-05 15:13 262 16.7
2020-Aug-05 15:03 213 0 gusting 4 16.1
2020-Aug-05 14:58 238 16.1
2020-Aug-05 14:53 224 15.6
2020-Aug-05 14:48 214 15.6
2020-Aug-05 14:43 221 15.0
2020-Aug-05 14:38 197 14.4
2020-Aug-05 14:33 218 13.9
2020-Aug-05 14:28 201 13.9
2020-Aug-05 14:23 243 13.9
2020-Aug-05 14:18 243 13.3
2020-Aug-05 14:13 229 13.3
2020-Aug-05 14:08 229 13.3
2020-Aug-05 14:03 229 12.8
2020-Aug-05 13:58 229 12.8
2020-Aug-05 13:53 229 12.8
2020-Aug-05 13:48 229 12.8
2020-Aug-05 13:43 229 12.8
2020-Aug-05 13:38 229 12.8
2020-Aug-05 13:33 229 12.8
2020-Aug-05 13:28 229 12.8
2020-Aug-05 13:23 229 12.2
2020-Aug-05 13:18 229 12.2
2020-Aug-05 13:13 229 12.2
2020-Aug-05 13:08 229 12.2
2020-Aug-05 13:03 229 12.2
2020-Aug-05 12:58 229 12.2
2020-Aug-05 12:53 229 12.2
2020-Aug-05 12:48 229 12.2
2020-Aug-05 12:43 229 12.2
2020-Aug-05 12:38 229 12.2
2020-Aug-05 12:33 229 12.2
2020-Aug-05 12:28 229 12.2
2020-Aug-05 12:23 229 12.2
2020-Aug-05 12:18 229 12.2
2020-Aug-05 12:13 229 12.8
2020-Aug-05 12:08 229 12.8
2020-Aug-05 12:03 229 12.8
2020-Aug-05 11:58 229 12.8
2020-Aug-05 11:53 229 12.8
2020-Aug-05 11:48 229 12.8
2020-Aug-05 11:43 229 12.8
2020-Aug-05 11:38 229 12.8
2020-Aug-05 11:33 229 12.8
2020-Aug-05 11:28 229 12.8
2020-Aug-05 11:23 229 12.8
2020-Aug-05 11:18 229 13.3
2020-Aug-05 11:13 229 13.3
2020-Aug-05 11:03 229 13.3
2020-Aug-05 10:58 229 13.3
2020-Aug-05 10:53 229 13.3
2020-Aug-05 10:48 229 13.3
2020-Aug-05 10:43 229 13.3
2020-Aug-05 10:38 229 13.3
2020-Aug-05 10:33 229 13.3
2020-Aug-05 10:28 229 13.3
2020-Aug-05 10:23 229 13.3
2020-Aug-05 10:18 229 13.3
2020-Aug-05 10:13 229 13.3
2020-Aug-05 10:08 229 13.3
2020-Aug-05 10:03 229 13.9
2020-Aug-05 09:58 229 13.9
2020-Aug-05 09:53 229 13.9
2020-Aug-05 09:48 229 13.9
2020-Aug-05 09:43 229 13.9
2020-Aug-05 09:38 229 13.9
2020-Aug-05 09:33 229 13.9
2020-Aug-05 09:28 229 13.9
2020-Aug-05 09:23 229 13.9
2020-Aug-05 09:18 230 13.9
2020-Aug-05 09:13 229 13.9
2020-Aug-05 09:08 229 14.4
2020-Aug-05 09:03 229 14.4
2020-Aug-05 08:58 229 14.4
2020-Aug-05 08:53 229 14.4
2020-Aug-05 08:48 229 14.4
2020-Aug-05 08:43 229 14.4
2020-Aug-05 08:38 229 14.4
2020-Aug-05 08:33 229 14.4
2020-Aug-05 08:28 229 14.4
2020-Aug-05 08:23 229 14.4
2020-Aug-05 08:18 229 14.4
2020-Aug-05 08:13 229 15.0
2020-Aug-05 08:08 229 15.0
2020-Aug-05 08:03 229 15.0
2020-Aug-05 07:58 229 15.0
2020-Aug-05 07:53 229 15.0
2020-Aug-05 07:48 229 15.0
2020-Aug-05 07:43 229 15.0
2020-Aug-05 07:38 229 15.6
2020-Aug-05 07:33 229 15.6
2020-Aug-05 07:28 229 15.6
2020-Aug-05 07:23 229 15.6
2020-Aug-05 07:18 229 15.6
2020-Aug-05 07:13 229 15.6
2020-Aug-05 07:08 229 16.1
2020-Aug-05 07:03 229 16.1
2020-Aug-05 06:58 229 16.1
2020-Aug-05 06:53 088 16.1
2020-Aug-05 06:48 088 16.1
2020-Aug-05 06:43 088 16.1
2020-Aug-05 06:38 087 16.1
2020-Aug-05 06:33 088 16.7
2020-Aug-05 06:28 088 16.7
2020-Aug-05 06:23 088 16.7
2020-Aug-05 06:18 088 16.7
2020-Aug-05 06:13 088 17.2
2020-Aug-05 06:08 088 17.2
2020-Aug-05 06:03 072 17.2
2020-Aug-05 05:58 072 17.2
2020-Aug-05 05:53 072 17.8
2020-Aug-05 05:48 072 17.8
2020-Aug-05 05:43 072 17.8
2020-Aug-05 05:38 072 17.8
2020-Aug-05 05:33 072 17.8
2020-Aug-05 05:28 072 17.8
2020-Aug-05 05:23 072 18.3
2020-Aug-05 05:18 072 18.3
2020-Aug-05 05:13 072 18.3
2020-Aug-05 05:03 072 18.9
2020-Aug-05 04:58 072 18.9
2020-Aug-05 04:53 072 18.9
2020-Aug-05 04:48 072 19.4
2020-Aug-05 04:43 056 19.4
2020-Aug-05 04:38 056 19.4
2020-Aug-05 04:33 056 20.0
2020-Aug-05 04:28 056 20.0
2020-Aug-05 04:23 056 20.6
2020-Aug-05 04:18 056 20.6
2020-Aug-05 04:13 056 21.1
2020-Aug-05 04:08 056 21.1
2020-Aug-05 04:03 055 21.1
2020-Aug-05 03:58 056 21.7
2020-Aug-05 03:53 056 21.7
2020-Aug-05 03:48 056 22.2
2020-Aug-05 03:43 056 22.2
2020-Aug-05 03:38 056 22.8
2020-Aug-05 03:33 055 22.8
2020-Aug-05 03:28 055 23.3
2020-Aug-05 03:23 056 23.3
2020-Aug-05 03:18 056 23.3
2020-Aug-05 03:13 056 23.9
2020-Aug-05 03:08 053 23.9
2020-Aug-05 03:03 053 24.4
2020-Aug-05 02:58 053 24.4
2020-Aug-05 02:53 053 24.4
2020-Aug-05 02:48 054 24.4
2020-Aug-05 02:43 054 25.0
2020-Aug-05 02:38 054 25.0
2020-Aug-05 02:33 053 25.0
2020-Aug-05 02:28 054 25.0
2020-Aug-05 02:23 048 25.6
2020-Aug-05 02:18 049 25.6
2020-Aug-05 02:13 048 25.6
2020-Aug-05 02:08 047 26.1
2020-Aug-05 02:03 049 26.1
2020-Aug-05 01:58 052 26.1
2020-Aug-05 01:53 053 26.1
2020-Aug-05 01:48 056 26.1
2020-Aug-05 01:43 290 26.1
2020-Aug-05 01:38 290 26.1
2020-Aug-05 01:33 302 26.1
2020-Aug-05 01:28 250 26.7
2020-Aug-05 01:23 283 26.7
2020-Aug-05 01:18 280 26.7
2020-Aug-05 01:13 245 26.7
2020-Aug-05 01:08 029 26.7
2020-Aug-05 01:03 198 26.7